Miscellaneous Local Product
Issued by NWS North Platte, NE

Home | Current Version | Previous Version | Text Only | Print | Product List | Glossary On
Versions: 1 2 3 4 5 6 7 8 9 10 11 12 13 14 15 16 17 18 19 20 21 22 23 24 25 26 27 28 29 30 31 32 33 34 35 36 37 38 39 40 41 42 43 44 45 46 47 48 49 50
000
AXUS43 KLBF 211610
MISLBF


WESTERN AND NORTH CENTRAL NEBRASKA HOURLY WEATHER ROUNDUP
NATIONAL WEATHER SERVICE NORTH PLATTE NE
1100 AM CDT THU AUG 21 2014

***STATIONS NOT REPORTING VARIABLES SUCH AS SKY/WEATHER OR
PRESSURE ARE PROVIDED BY THE NEBRASKA DEPARTMENT OF
ROADS...RAWS...AND APRS NETWORKS...AND ARE NOT UNDER
NATIONAL WEATHER SERVICE QUALITY CONTROL***

...OBSERVATIONS IN AND NEAR THE EASTERN PANHANDLE OF NEBRASKA...

CITY           SKY/WX    TMP DP  RH WIND       PRES   REMARKS
PINE RIDGE     MOSUNNY   76  57  51 N10       29.98R
CHADRON        MOSUNNY   76  56  49 NE8       29.98R
ALLIANCE       SUNNY     79  51  37 N12       29.99R
SIDNEY         SUNNY     79  49  34 NW18G24   30.03R
WHITECLAY        N/A     74  58  57 W6          N/A
RUSHVILLE        N/A     79  53  40 NE13        N/A
GORDON           N/A     78  62  56 E12         N/A
CRESCENT LAKE    N/A     78  56  46 NE8G15      N/A
LISCO            N/A     81  54  38 SW9         N/A
BIG SPRINGS      N/A     75  58  54 NW3         N/A
$$

...OBSERVATIONS IN NORTH CENTRAL NEBRASKA...

CITY           SKY/WX    TMP DP  RH WIND       PRES   REMARKS
VALENTINE      SUNNY     77  62  59 N13       29.92R
THEDFORD       MOSUNNY   78  60  54 N14       29.93R
AINSWORTH      MOSUNNY   73  64  73 N12       29.90F
O`NEILL        CLOUDY    76  71  85 NW10      29.85R
ORD            MOSUNNY   79  67  66 W7        29.84R
BROKEN BOW     MOSUNNY   79  66  64 N10       29.88R
BROWNLEE         N/A     78  60  53 N21         N/A
SPRINGVIEW       N/A     74  65  74 N6          N/A
ROSE             N/A     75  72  88 N10         N/A
NEWPORT          N/A     75  70  84 W9          N/A
SARGENT          N/A     79  66  63 N3          N/A
COMSTOCK         N/A     85  74  69 W5          N/A  HX  93
CHAMBERS         N/A     80  70  71 E3          N/A
EWING            N/A     79  69  71 NE5         N/A
$$

...OBSERVATIONS IN SOUTHWEST NEBRASKA AND FAR NORTHEAST COLORADO...

CITY           SKY/WX    TMP DP  RH WIND       PRES   REMARKS
WRAY             N/A     83  48  29 NW17G23   30.00R
IMPERIAL       SUNNY     80  54  40 N16       29.95R
OGALLALA       SUNNY     78  53  41 NW9G17    29.95R
NORTH PLATTE   SUNNY     83  62  49 NE9       29.90R
MCCOOK         MOSUNNY   82  62  50 S7        29.91R
LEXINGTON      SUNNY     79  69  72 CALM      29.89R
PAXTON           N/A     74  64  70 NW6         N/A
SUTHERLAND       N/A     86  63  45 W3          N/A
BRADY            N/A     78  66  66 CALM        N/A
GOTHENBURG       N/A     76  60  58 NW3         N/A
CALLAWAY         N/A     74  66  76 N6          N/A
$$

...SOME WEATHER OBSERVATIONS FROM AROUND THE REGION...

CITY           SKY/WX    TMP DP  RH WIND       PRES   REMARKS
DENVER         PTSUNNY   73  56  54 SW8       30.11R
LARAMIE        MOSUNNY   64  43  46 SW10      30.22S
CHEYENNE       SUNNY     73  44  35 W10       30.14S
SCOTTSBLUFF    SUNNY     75  55  49 W7        30.02S
RAPID CITY     MOSUNNY   75  57  53 NE9       29.98R
PIERRE         MOSUNNY   75  65  70 NW8       29.85R
WINNER         FAIR      77  65  66 N9        29.88S
SIOUX FALLS    MOSUNNY   82  72  71 W7        29.77R
OMAHA          PTSUNNY   81  69  67 SE10      29.82S
GRAND ISLAND   PTSUNNY   80  69  69 S15       29.85R
KANSAS CITY    CLOUDY    85  73  67 S16       29.92R HX  91
WICHITA        SUNNY     90  67  46 S17G25    29.92S HX  93
HAYS           SUNNY     88  66  48 SW14      29.86S HX  90
LIBERAL        SUNNY     88  63  42 SW20G26   29.94F
GOODLAND       SUNNY     83  53  35 N14       30.00R
$$



USA.gov is the U.S. government's official web portal to all federal, state and local government web resources and services.